,,,PA_Meas_PMT16A,,PR_Meas_QMR101_102,,RH_Meas_QMH101,,SR_Meas_QMS101,,TA_Meas_QMH101,,GenWind,,GenWind,
date,time,status,PA,status,PR,status,RH,status,SR,status,TA,status,DirAvg,status,SpdAvg,
2012-08-22, 00:00:04,VALID,1010.05,VALID,0,VALID,104,VALID,0,VALID,23.694,VALID,76,VALID,0,
2012-08-22, 00:01:04,VALID,1010.04,VALID,0,VALID,104,VALID,0.112112,VALID,23.655,VALID,76,VALID,0,
2012-08-22, 00:02:04,VALID,1010.02,VALID,0,VALID,104,VALID,0,VALID,23.6356,VALID,76,VALID,0,
2012-08-22, 00:03:04,VALID,1009.97,VALID,0,VALID,104,VALID,0,VALID,23.5948,VALID,76,VALID,0,
2012-08-22, 00:04:04,VALID,1010.01,VALID,0,VALID,104,VALID,0,VALID,23.6356,VALID,76,VALID,0,
2012-08-22, 00:05:04,VALID,1009.96,VALID,0,VALID,104,VALID,0,VALID,23.655,VALID,76,VALID,0,
2012-08-22, 00:06:04,VALID,1009.99,VALID,0,VALID,104,VALID,0,VALID,23.6338,VALID,76,VALID,0,
2012-08-22, 00:07:04,VALID,1009.99,VALID,0,VALID,104,VALID,0,VALID,23.6338,VALID,76,VALID,0,
2012-08-22, 00:08:04,VALID,1009.97,VALID,0,VALID,104,VALID,0.112112,VALID,23.6338,VALID,76,VALID,0,
2012-08-22, 00:09:04,VALID,1009.93,VALID,0,VALID,104,VALID,0,VALID,23.6356,VALID,76,VALID,0,
2012-08-22, 00:10:04,VALID,1009.9,VALID,0,VALID,104,VALID,0,VALID,23.5948,VALID,76,VALID,0,
2012-08-22, 00:11:04,VALID,1009.9,VALID,0,VALID,104,VALID,0,VALID,23.5966,VALID,76,VALID,0,
2012-08-22, 00:12:04,VALID,1009.91,VALID,0,VALID,104,VALID,0.112112,VALID,23.5753,VALID,76,VALID,0,
2012-08-22, 00:13:04,VALID,1009.88,VALID,0,VALID,104,VALID,0,VALID,23.5753,VALID,76,VALID,0,
2012-08-22, 00:14:04,VALID,1009.87,VALID,0,VALID,104,VALID,0.112112,VALID,23.5966,VALID,76,VALID,0,
2012-08-22, 00:15:04,VALID,1009.88,VALID,0,VALID,104,VALID,0,VALID,23.5966,VALID,76,VALID,0,
2012-08-22, 00:16:04,VALID,1009.9,VALID,0,VALID,104,VALID,0,VALID,23.5966,VALID,76,VALID,0,
2012-08-22, 00:17:04,VALID,1009.87,VALID,0,VALID,104,VALID,0.112112,VALID,23.5948,VALID,76,VALID,0,
2012-08-22, 00:18:04,VALID,1009.87,VALID,0,VALID,104,VALID,0.112112,VALID,23.6161,VALID,76,VALID,0,
2012-08-22, 00:19:04,VALID,1009.86,VALID,0,VALID,104,VALID,0.112112,VALID,23.6161,VALID,76,VALID,0,
2012-08-22, 00:20:04,VALID,1009.85,VALID,0,VALID,104,VALID,0,VALID,23.5948,VALID,76,VALID,0,
2012-08-22, 00:21:04,VALID,1009.86,VALID,0,VALID,104,VALID,0.112112,VALID,23.5966,VALID,76,VALID,0,
2012-08-22, 00:22:04,VALID,1009.87,VALID,0,VALID,104,VALID,0.112112,VALID,23.5771,VALID,76,VALID,0,
2012-08-22, 00:23:04,VALID,1009.87,VALID,0,VALID,104,VALID,0.112112,VALID,23.5363,VALID,76,VALID,0,
2012-08-22, 00:24:04,VALID,1009.85,VALID,0,VALID,104,VALID,0,VALID,23.5169,VALID,76,VALID,0,
2012-08-22, 00:25:04,VALID,1009.87,VALID,0,VALID,104,VALID,0.112112,VALID,23.4974,VALID,76,VALID,0,
2012-08-22, 00:26:04,VALID,1009.88,VALID,0,VALID,104,VALID,0,VALID,23.4974,VALID,76,VALID,0,
2012-08-22, 00:27:04,VALID,1009.88,VALID,0,VALID,104,VALID,0.112112,VALID,23.4974,VALID,76,VALID,0,
2012-08-22, 00:28:04,VALID,1009.89,VALID,0,VALID,104,VALID,0,VALID,23.4974,VALID,76,VALID,0,
2012-08-22, 00:29:04,VALID,1009.9,VALID,0,VALID,104,VALID,0.112112,VALID,23.4761,VALID,76,VALID,0,
2012-08-22, 00:30:04,VALID,1009.86,VALID,0,VALID,104,VALID,0,VALID,23.5186,VALID,76,VALID,0,
2012-08-22, 00:31:04,VALID,1009.88,VALID,0,VALID,104,VALID,0.112112,VALID,23.4779,VALID,76,VALID,0,
2012-08-22, 00:32:04,VALID,1009.84,VALID,0,VALID,104,VALID,0.112112,VALID,23.4779,VALID,76,VALID,0,
2012-08-22, 00:33:04,VALID,1009.79,VALID,0,VALID,104,VALID,0,VALID,23.4779,VALID,76,VALID,0,
2012-08-22, 00:34:04,VALID,1009.8,VALID,0,VALID,104,VALID,0,VALID,23.4974,VALID,76,VALID,0,
2012-08-22, 00:35:04,VALID,1009.8,VALID,0,VALID,104,VALID,0,VALID,23.5186,VALID,76,VALID,0,
2012-08-22, 00:36:04,VALID,1009.79,VALID,0,VALID,104,VALID,0,VALID,23.4974,VALID,76,VALID,0,
2012-08-22, 00:37:04,VALID,1009.81,VALID,0,VALID,104,VALID,0.112112,VALID,23.4779,VALID,76,VALID,0,
2012-08-22, 00:38:04,VALID,1009.81,VALID,0,VALID,104,VALID,0,VALID,23.4602,VALID,76,VALID,0,
2012-08-22, 00:39:04,VALID,1009.81,VALID,0,VALID,104,VALID,0.112112,VALID,23.4797,VALID,76,VALID,0,
2012-08-22, 00:40:04,VALID,1009.82,VALID,0,VALID,104,VALID,0.112112,VALID,23.4194,VALID,76,VALID,0,
2012-08-22, 00:41:04,VALID,1009.84,VALID,0,VALID,104,VALID,0.112112,VALID,23.4194,VALID,76,VALID,0,
2012-08-22, 00:42:04,VALID,1009.85,VALID,0,VALID,104,VALID,0.112112,VALID,23.4194,VALID,76,VALID,0,
2012-08-22, 00:43:04,VALID,1009.86,VALID,0,VALID,104,VALID,0.112112,VALID,23.4,VALID,76,VALID,0,
2012-08-22, 00:44:04,VALID,1009.86,VALID,0,VALID,104,VALID,0.112112,VALID,23.4212,VALID,76,VALID,0,
2012-08-22, 00:45:04,VALID,1009.85,VALID,0,VALID,104,VALID,0.112112,VALID,23.4407,VALID,76,VALID,0,
2012-08-22, 00:46:04,VALID,1009.82,VALID,0,VALID,104,VALID,0.112112,VALID,23.4389,VALID,76,VALID,0,
2012-08-22, 00:47:04,VALID,1009.8,VALID,0,VALID,104,VALID,0,VALID,23.4602,VALID,76,VALID,0,
2012-08-22, 00:48:04,VALID,1009.78,VALID,0,VALID,104,VALID,0.112112,VALID,23.4584,VALID,76,VALID,0,
2012-08-22, 00:49:04,VALID,1009.76,VALID,0,VALID,104,VALID,0,VALID,23.4584,VALID,76,VALID,0,
2012-08-22, 00:50:04,VALID,1009.75,VALID,0,VALID,104,VALID,0,VALID,23.4584,VALID,76,VALID,0,
2012-08-22, 00:51:04,VALID,1009.74,VALID,0,VALID,104,VALID,0,VALID,23.4797,VALID,76,VALID,0,
2012-08-22, 00:52:04,VALID,1009.7,VALID,0,VALID,104,VALID,0,VALID,23.5186,VALID,76,VALID,0,
2012-08-22, 00:53:04,VALID,1009.7,VALID,0,VALID,104,VALID,0,VALID,23.5169,VALID,76,VALID,0,
2012-08-22, 00:54:04,VALID,1009.69,VALID,0,VALID,104,VALID,0.112112,VALID,23.5576,VALID,76,VALID,0,
2012-08-22, 00:55:04,VALID,1009.71,VALID,0,VALID,104,VALID,0.112112,VALID,23.5558,VALID,76,VALID,0,
2012-08-22, 00:56:04,VALID,1009.7,VALID,0,VALID,104,VALID,0,VALID,23.5966,VALID,76,VALID,0,
2012-08-22, 00:57:04,VALID,1009.7,VALID,0,VALID,104,VALID,0.112112,VALID,23.5966,VALID,76,VALID,0,
2012-08-22, 00:58:04,VALID,1009.67,VALID,0,VALID,104,VALID,0,VALID,23.5948,VALID,76,VALID,0,
2012-08-22, 00:59:04,VALID,1009.66,VALID,0,VALID,104,VALID,0.112112,VALID,23.655,VALID,76,VALID,0,
2012-08-22, 01:00:04,VALID,1009.61,VALID,0,VALID,104,VALID,0.112112,VALID,23.6356,VALID,76,VALID,0,
2012-08-22, 01:01:04,VALID,1009.58,VALID,0,VALID,104,VALID,0.112112,VALID,23.6356,VALID,76,VALID,0,
2012-08-22, 01:02:04,VALID,1009.55,VALID,0,VALID,104,VALID,0.112112,VALID,23.6143,VALID,76,VALID,0,
2012-08-22, 01:03:04,VALID,1009.52,VALID,0,VALID,104,VALID,0,VALID,23.6356,VALID,76,VALID,0,
2012-08-22, 01:04:04,VALID,1009.53,VALID,0,VALID,104,VALID,0.112112,VALID,23.6143,VALID,76,VALID,0,
2012-08-22, 01:05:04,VALID,1009.52,VALID,0,VALID,104,VALID,0.112112,VALID,23.655,VALID,76,VALID,0,
2012-08-22, 01:06:04,VALID,1009.54,VALID,0,VALID,104,VALID,0.112112,VALID,23.655,VALID,76,VALID,0,
2012-08-22, 01:07:04,VALID,1009.52,VALID,0,VALID,104,VALID,0.112112,VALID,23.6143,VALID,76,VALID,0,
2012-08-22, 01:08:04,VALID,1009.53,VALID,0,VALID,104,VALID,0,VALID,23.6338,VALID,76,VALID,0,
2012-08-22, 01:09:04,VALID,1009.49,VALID,0,VALID,104,VALID,0.112112,VALID,23.6356,VALID,76,VALID,0,
2012-08-22, 01:10:04,VALID,1009.49,VALID,0,VALID,104,VALID,0,VALID,23.6356,VALID,77,VALID,0,
2012-08-22, 01:11:04,VALID,1009.52,VALID,0,VALID,104,VALID,0,VALID,23.655,VALID,91,VALID,0,
2012-08-22, 01:12:04,VALID,1009.49,VALID,0,VALID,104,VALID,0,VALID,23.694,VALID,104,VALID,0,
2012-08-22, 01:13:04,VALID,1009.49,VALID,0,VALID,104,VALID,0,VALID,23.6532,VALID,104,VALID,0,
2012-08-22, 01:14:04,VALID,1009.45,VALID,0,VALID,104,VALID,0.112112,VALID,23.6532,VALID,104,VALID,0,
2012-08-22, 01:15:04,VALID,1009.42,VALID,0,VALID,104,VALID,0,VALID,23.6958,VALID,104,VALID,0,
2012-08-22, 01:16:04,VALID,1009.41,VALID,0,VALID,104,VALID,0,VALID,23.6532,VALID,104,VALID,0,
2012-08-22, 01:17:04,VALID,1009.38,VALID,0,VALID,104,VALID,0,VALID,23.6532,VALID,104,VALID,0,
2012-08-22, 01:18:04,VALID,1009.4,VALID,0,VALID,104,VALID,0,VALID,23.655,VALID,103,VALID,0,
2012-08-22, 01:19:04,VALID,1009.37,VALID,0,VALID,104,VALID,0,VALID,23.6356,VALID,103,VALID,0,
2012-08-22, 01:20:04,VALID,1009.4,VALID,0,VALID,104,VALID,0,VALID,23.6356,VALID,103,VALID,0,
2012-08-22, 01:21:04,VALID,1009.38,VALID,0,VALID,104,VALID,0,VALID,23.6356,VALID,103,VALID,0,
2012-08-22, 01:22:04,VALID,1009.38,VALID,0,VALID,104,VALID,0,VALID,23.6161,VALID,104,VALID,0,
2012-08-22, 01:23:04,VALID,1009.38,VALID,0,VALID,104,VALID,0,VALID,23.6356,VALID,104,VALID,0,
2012-08-22, 01:24:04,VALID,1009.37,VALID,0,VALID,104,VALID,0.112112,VALID,23.6161,VALID,104,VALID,0,
2012-08-22, 01:25:04,VALID,1009.37,VALID,0,VALID,104,VALID,0,VALID,23.6161,VALID,104,VALID,0,
2012-08-22, 01:26:04,VALID,1009.35,VALID,0,VALID,104,VALID,0,VALID,23.655,VALID,54,VALID,0,
2012-08-22, 01:27:04,VALID,1009.36,VALID,0,VALID,104,VALID,0,VALID,23.694,VALID,54,VALID,0,
2012-08-22, 01:28:04,VALID,1009.33,VALID,0,VALID,104,VALID,0,VALID,23.7135,VALID,54,VALID,0,
2012-08-22, 01:29:04,VALID,1009.32,VALID,0,VALID,104,VALID,0,VALID,23.7135,VALID,54,VALID,0,
2012-08-22, 01:30:04,VALID,1009.28,VALID,0,VALID,104,VALID,0,VALID,23.7135,VALID,54,VALID,0,
2012-08-22, 01:31:04,VALID,1009.27,VALID,0,VALID,104,VALID,0.112112,VALID,23.733,VALID,54,VALID,0,
2012-08-22, 01:32:04,VALID,1009.28,VALID,0,VALID,104,VALID,0,VALID,23.7525,VALID,54,VALID,0,
2012-08-22, 01:33:04,VALID,1009.27,VALID,0,VALID,104,VALID,0,VALID,23.7117,VALID,54,VALID,0,
2012-08-22, 01:34:04,VALID,1009.3,VALID,0,VALID,104,VALID,0,VALID,23.7525,VALID,54,VALID,0,
2012-08-22, 01:35:04,VALID,1009.3,VALID,0,VALID,104,VALID,0,VALID,23.7525,VALID,54,VALID,0,
2012-08-22, 01:36:04,VALID,1009.3,VALID,0,VALID,104,VALID,0,VALID,23.772,VALID,54,VALID,0,
2012-08-22, 01:37:04,VALID,1009.33,VALID,0,VALID,104,VALID,0,VALID,23.7525,VALID,54,VALID,0,
2012-08-22, 01:38:04,VALID,1009.31,VALID,0,VALID,104,VALID,0,VALID,23.7525,VALID,54,VALID,0,
2012-08-22, 01:39:04,VALID,1009.3,VALID,0,VALID,104,VALID,0,VALID,23.7525,VALID,54,VALID,0,
2012-08-22, 01:40:04,VALID,1009.3,VALID,0,VALID,104,VALID,0,VALID,23.733,VALID,54,VALID,0,
2012-08-22, 01:41:04,VALID,1009.28,VALID,0,VALID,104,VALID,0,VALID,23.6745,VALID,54,VALID,0,
2012-08-22, 01:42:04,VALID,1009.28,VALID,0,VALID,104,VALID,0.112112,VALID,23.6143,VALID,54,VALID,0,
2012-08-22, 01:43:04,VALID,1009.3,VALID,0,VALID,104,VALID,0,VALID,23.6161,VALID,54,VALID,0,
2012-08-22, 01:44:04,VALID,1009.27,VALID,0,VALID,104,VALID,0,VALID,23.5363,VALID,54,VALID,0,
2012-08-22, 01:45:04,VALID,1009.28,VALID,0,VALID,104,VALID,0,VALID,23.5186,VALID,54,VALID,0,
2012-08-22, 01:46:04,VALID,1009.28,VALID,0,VALID,104,VALID,0,VALID,23.4992,VALID,54,VALID,0,
2012-08-22, 01:47:04,VALID,1009.27,VALID,0,VALID,104,VALID,0,VALID,23.4389,VALID,54,VALID,0,
2012-08-22, 01:48:04,VALID,1009.26,VALID,0,VALID,104,VALID,0,VALID,23.4212,VALID,54,VALID,0,
2012-08-22, 01:49:04,VALID,1009.25,VALID,0,VALID,104,VALID,0,VALID,23.3823,VALID,54,VALID,0,
2012-08-22, 01:50:04,VALID,1009.25,VALID,0,VALID,104,VALID,0.112112,VALID,23.361,VALID,54,VALID,0,
2012-08-22, 01:51:04,VALID,1009.23,VALID,0,VALID,104,VALID,0.112112,VALID,23.4212,VALID,54,VALID,0,
2012-08-22, 01:52:04,VALID,1009.22,VALID,0,VALID,104,VALID,0,VALID,23.4407,VALID,54,VALID,0,
2012-08-22, 01:53:04,VALID,1009.17,VALID,0,VALID,104,VALID,0,VALID,23.4017,VALID,54,VALID,0,
2012-08-22, 01:54:04,VALID,1009.17,VALID,0,VALID,104,VALID,0,VALID,23.4017,VALID,54,VALID,0,
2012-08-22, 01:55:04,VALID,1009.17,VALID,0,VALID,104,VALID,0,VALID,23.4407,VALID,54,VALID,0,
2012-08-22, 01:56:04,VALID,1009.16,VALID,0,VALID,104,VALID,0,VALID,23.4797,VALID,54,VALID,0,
2012-08-22, 01:57:04,VALID,1009.16,VALID,0,VALID,104,VALID,0,VALID,23.5186,VALID,54,VALID,0,
2012-08-22, 01:58:04,VALID,1009.15,VALID,0,VALID,104,VALID,0.112112,VALID,23.5186,VALID,54,VALID,0,
2012-08-22, 01:59:04,VALID,1009.15,VALID,0,VALID,104,VALID,0,VALID,23.5381,VALID,54,VALID,0,
2012-08-22, 02:00:04,VALID,1009.17,VALID,0,VALID,104,VALID,0,VALID,23.5576,VALID,54,VALID,0,
2012-08-22, 02:01:04,VALID,1009.15,VALID,0,VALID,104,VALID,0,VALID,23.5381,VALID,54,VALID,0,
2012-08-22, 02:02:04,VALID,1009.17,VALID,0,VALID,104,VALID,0,VALID,23.5186,VALID,54,VALID,0,
2012-08-22, 02:03:04,VALID,1009.18,VALID,0,VALID,104,VALID,0.112112,VALID,23.4779,VALID,54,VALID,0,
2012-08-22, 02:04:04,VALID,1009.18,VALID,0,VALID,104,VALID,0,VALID,23.4797,VALID,54,VALID,0,
2012-08-22, 02:05:04,VALID,1009.2,VALID,0,VALID,104,VALID,0,VALID,23.4407,VALID,54,VALID,0,
2012-08-22, 02:06:04,VALID,1009.17,VALID,0,VALID,104,VALID,0,VALID,23.3628,VALID,54,VALID,0,
2012-08-22, 02:07:04,VALID,1009.2,VALID,0,VALID,104,VALID,0,VALID,23.3238,VALID,54,VALID,0,
2012-08-22, 02:08:04,VALID,1009.17,VALID,0,VALID,104,VALID,0,VALID,23.3043,VALID,54,VALID,0,
2012-08-22, 02:09:04,VALID,1009.18,VALID,0,VALID,104,VALID,0,VALID,23.3043,VALID,54,VALID,0,
2012-08-22, 02:10:04,VALID,1009.22,VALID,0,VALID,104,VALID,0,VALID,23.3026,VALID,54,VALID,0,
2012-08-22, 02:11:04,VALID,1009.19,VALID,0,VALID,104,VALID,0,VALID,23.2848,VALID,54,VALID,0,
2012-08-22, 02:12:04,VALID,1009.21,VALID,0,VALID,104,VALID,0,VALID,23.2441,VALID,54,VALID,0,
2012-08-22, 02:13:04,VALID,1009.2,VALID,0,VALID,104,VALID,0,VALID,23.2654,VALID,54,VALID,0,
2012-08-22, 02:14:04,VALID,1009.21,VALID,0,VALID,104,VALID,0,VALID,23.2264,VALID,54,VALID,0,
2012-08-22, 02:15:04,VALID,1009.2,VALID,0,VALID,104,VALID,0,VALID,23.1874,VALID,54,VALID,0,
2012-08-22, 02:16:04,VALID,1009.2,VALID,0,VALID,104,VALID,0,VALID,23.1874,VALID,54,VALID,0,
2012-08-22, 02:17:04,VALID,1009.21,VALID,0,VALID,104,VALID,0,VALID,23.2069,VALID,54,VALID,0,
2012-08-22, 02:18:04,VALID,1009.2,VALID,0,VALID,104,VALID,0,VALID,23.2264,VALID,54,VALID,0,
2012-08-22, 02:19:04,VALID,1009.22,VALID,0,VALID,104,VALID,0,VALID,23.2069,VALID,54,VALID,0,
2012-08-22, 02:20:04,VALID,1009.21,VALID,0,VALID,104,VALID,0,VALID,23.2264,VALID,54,VALID,0,
2012-08-22, 02:21:04,VALID,1009.19,VALID,0,VALID,104,VALID,0,VALID,23.1892,VALID,54,VALID,0,
2012-08-22, 02:22:04,VALID,1009.2,VALID,0,VALID,104,VALID,0,VALID,23.1095,VALID,54,VALID,0,
2012-08-22, 02:23:04,VALID,1009.16,VALID,0,VALID,104,VALID,0,VALID,23.0688,VALID,54,VALID,0,
2012-08-22, 02:24:04,VALID,1009.14,VALID,0,VALID,104,VALID,0,VALID,23.0511,VALID,54,VALID,0,
2012-08-22, 02:25:04,VALID,1009.12,VALID,0,VALID,104,VALID,0,VALID,23.0316,VALID,54,VALID,0,
2012-08-22, 02:26:04,VALID,1009.12,VALID,0,VALID,104,VALID,0,VALID,23.0121,VALID,54,VALID,0,
2012-08-22, 02:27:04,VALID,1009.16,VALID,0,VALID,104,VALID,0,VALID,22.9731,VALID,54,VALID,0,
2012-08-22, 02:28:04,VALID,1009.15,VALID,0,VALID,104,VALID,0,VALID,22.9554,VALID,54,VALID,0,
2012-08-22, 02:29:04,VALID,1009.17,VALID,0,VALID,104,VALID,0,VALID,22.9359,VALID,54,VALID,0,
2012-08-22, 02:30:04,VALID,1009.17,VALID,0,VALID,104,VALID,0,VALID,22.8757,VALID,54,VALID,0,
2012-08-22, 02:31:04,VALID,1009.17,VALID,0,VALID,104,VALID,0,VALID,22.8952,VALID,54,VALID,0,
2012-08-22, 02:32:04,VALID,1009.15,VALID,0,VALID,104,VALID,0,VALID,22.8952,VALID,54,VALID,0,
2012-08-22, 02:33:04,VALID,1009.16,VALID,0,VALID,104,VALID,0,VALID,22.8952,VALID,54,VALID,0,
2012-08-22, 02:34:04,VALID,1009.14,VALID,0,VALID,104,VALID,0,VALID,22.9147,VALID,54,VALID,0,
2012-08-22, 02:35:04,VALID,1009.15,VALID,0,VALID,104,VALID,0,VALID,22.8952,VALID,54,VALID,0,
2012-08-22, 02:36:04,VALID,1009.09,VALID,0,VALID,104,VALID,0,VALID,22.8562,VALID,54,VALID,0,
2012-08-22, 02:37:04,VALID,1009.07,VALID,0,VALID,104,VALID,0,VALID,22.8368,VALID,54,VALID,0,
2012-08-22, 02:38:04,VALID,1009.05,VALID,0,VALID,104,VALID,0,VALID,22.819,VALID,54,VALID,0,
2012-08-22, 02:39:04,VALID,1009.04,VALID,0,VALID,104,VALID,0,VALID,22.7376,VALID,54,VALID,0,
2012-08-22, 02:40:04,VALID,1009.03,VALID,0,VALID,104,VALID,0,VALID,22.7199,VALID,54,VALID,0,
2012-08-22, 02:41:04,VALID,1009.04,VALID,0,VALID,104,VALID,0,VALID,22.7588,VALID,54,VALID,0,
2012-08-22, 02:42:04,VALID,1009.04,VALID,0,VALID,104,VALID,0.112112,VALID,22.7961,VALID,54,VALID,0,
2012-08-22, 02:43:04,VALID,1009.04,VALID,0,VALID,104,VALID,0,VALID,22.8562,VALID,54,VALID,0,
2012-08-22, 02:44:04,VALID,1009.04,VALID,0,VALID,104,VALID,0,VALID,22.8935,VALID,54,VALID,0,
2012-08-22, 02:45:04,VALID,1009.02,VALID,0,VALID,104,VALID,0,VALID,22.9342,VALID,54,VALID,0,
2012-08-22, 02:46:04,VALID,1009.01,VALID,0,VALID,104,VALID,0,VALID,22.9536,VALID,54,VALID,0,
2012-08-22, 02:47:04,VALID,1008.98,VALID,0,VALID,104,VALID,0,VALID,22.9536,VALID,54,VALID,0,
2012-08-22, 02:48:04,VALID,1008.98,VALID,0,VALID,104,VALID,0,VALID,22.9731,VALID,54,VALID,0,
2012-08-22, 02:49:04,VALID,1008.98,VALID,0,VALID,104,VALID,0,VALID,22.9731,VALID,54,VALID,0,
2012-08-22, 02:50:04,VALID,1008.97,VALID,0,VALID,104,VALID,0,VALID,22.9147,VALID,54,VALID,0,
2012-08-22, 02:51:04,VALID,1008.96,VALID,0,VALID,104,VALID,0,VALID,22.8368,VALID,54,VALID,0,
2012-08-22, 02:52:04,VALID,1008.97,VALID,0,VALID,104,VALID,0,VALID,22.8173,VALID,54,VALID,0,
2012-08-22, 02:53:04,VALID,1008.98,VALID,0,VALID,104,VALID,0,VALID,22.8368,VALID,54,VALID,0,
2012-08-22, 02:54:04,VALID,1008.98,VALID,0,VALID,104,VALID,0,VALID,22.8155,VALID,54,VALID,0,
2012-08-22, 02:55:04,VALID,1008.98,VALID,0,VALID,104,VALID,0,VALID,22.7961,VALID,54,VALID,0,
2012-08-22, 02:56:04,VALID,1008.98,VALID,0,VALID,104,VALID,0,VALID,22.7783,VALID,54,VALID,0,
2012-08-22, 02:57:04,VALID,1008.96,VALID,0,VALID,104,VALID,0,VALID,22.7588,VALID,54,VALID,0,
2012-08-22, 02:58:04,VALID,1008.95,VALID,0,VALID,104,VALID,0,VALID,22.7783,VALID,54,VALID,0,
2012-08-22, 02:59:04,VALID,1008.96,VALID,0,VALID,104,VALID,0,VALID,22.7961,VALID,54,VALID,0,
2012-08-22, 03:00:04,VALID,1008.98,VALID,0,VALID,104,VALID,0,VALID,22.8368,VALID,54,VALID,0,
2012-08-22, 03:01:04,VALID,1009,VALID,0,VALID,104,VALID,0,VALID,22.835,VALID,54,VALID,0,
2012-08-22, 03:02:04,VALID,1009.05,VALID,0,VALID,104,VALID,0,VALID,22.8173,VALID,54,VALID,0,
2012-08-22, 03:03:04,VALID,1009.1,VALID,0,VALID,104,VALID,0.112112,VALID,22.7961,VALID,54,VALID,0,
2012-08-22, 03:04:04,VALID,1009.13,VALID,0,VALID,104,VALID,0,VALID,22.7588,VALID,54,VALID,0,
2012-08-22, 03:05:04,VALID,1009.14,VALID,0,VALID,104,VALID,0,VALID,22.7411,VALID,54,VALID,0,
2012-08-22, 03:06:04,VALID,1009.16,VALID,0,VALID,104,VALID,0.112112,VALID,22.7004,VALID,54,VALID,0,
2012-08-22, 03:07:04,VALID,1009.18,VALID,0,VALID,104,VALID,0,VALID,22.6809,VALID,54,VALID,0,
2012-08-22, 03:08:04,VALID,1009.21,VALID,0,VALID,104,VALID,0,VALID,22.603,VALID,54,VALID,0,
2012-08-22, 03:09:04,VALID,1009.2,VALID,0,VALID,104,VALID,0,VALID,22.564,VALID,54,VALID,0,
2012-08-22, 03:10:04,VALID,1009.21,VALID,0,VALID,104,VALID,0,VALID,22.5429,VALID,54,VALID,0,
2012-08-22, 03:11:04,VALID,1009.23,VALID,0,VALID,104,VALID,0,VALID,22.603,VALID,54,VALID,0,
2012-08-22, 03:12:04,VALID,1009.19,VALID,0,VALID,104,VALID,0.112112,VALID,22.6225,VALID,54,VALID,0,
2012-08-22, 03:13:04,VALID,1009.2,VALID,0,VALID,104,VALID,0.112112,VALID,22.6225,VALID,54,VALID,0,
2012-08-22, 03:14:04,VALID,1009.19,VALID,0,VALID,104,VALID,0.112112,VALID,22.6402,VALID,54,VALID,0,
2012-08-22, 03:15:04,VALID,1009.16,VALID,0,VALID,104,VALID,0.112112,VALID,22.6597,VALID,54,VALID,0,
2012-08-22, 03:16:04,VALID,1009.15,VALID,0,VALID,104,VALID,0,VALID,22.6208,VALID,54,VALID,0,
2012-08-22, 03:17:04,VALID,1009.18,VALID,0,VALID,104,VALID,0,VALID,22.642,VALID,54,VALID,0,
2012-08-22, 03:18:04,VALID,1009.21,VALID,0,VALID,104,VALID,0.112112,VALID,22.642,VALID,54,VALID,0,
2012-08-22, 03:19:04,VALID,1009.24,VALID,0,VALID,104,VALID,0.112112,VALID,22.6614,VALID,54,VALID,0,
2012-08-22, 03:20:04,VALID,1009.25,VALID,0,VALID,104,VALID,0.112112,VALID,22.7004,VALID,54,VALID,0,
2012-08-22, 03:21:04,VALID,1009.25,VALID,0,VALID,104,VALID,0,VALID,22.7588,VALID,54,VALID,0,
2012-08-22, 03:22:04,VALID,1009.26,VALID,0,VALID,104,VALID,0,VALID,22.7961,VALID,54,VALID,0,
2012-08-22, 03:23:04,VALID,1009.24,VALID,0,VALID,104,VALID,0,VALID,22.8155,VALID,54,VALID,0,
2012-08-22, 03:24:04,VALID,1009.19,VALID,0,VALID,104,VALID,0.112112,VALID,22.8757,VALID,54,VALID,0,
2012-08-22, 03:25:04,VALID,1009.15,VALID,0,VALID,104,VALID,0,VALID,22.8757,VALID,54,VALID,0,
2012-08-22, 03:26:04,VALID,1009.16,VALID,0,VALID,104,VALID,0.112112,VALID,22.8368,VALID,54,VALID,0,
2012-08-22, 03:27:04,VALID,1009.17,VALID,0,VALID,104,VALID,0.112112,VALID,22.7783,VALID,54,VALID,0,
2012-08-22, 03:28:04,VALID,1009.18,VALID,0,VALID,104,VALID,0,VALID,22.7978,VALID,54,VALID,0,
2012-08-22, 03:29:04,VALID,1009.17,VALID,0,VALID,104,VALID,0.112112,VALID,22.7588,VALID,54,VALID,0,
2012-08-22, 03:30:04,VALID,1009.21,VALID,0,VALID,104,VALID,0,VALID,22.6987,VALID,54,VALID,0,
2012-08-22, 03:31:04,VALID,1009.23,VALID,0,VALID,104,VALID,0,VALID,22.6809,VALID,54,VALID,0,
2012-08-22, 03:32:04,VALID,1009.2,VALID,0,VALID,104,VALID,0,VALID,22.6614,VALID,54,VALID,0,
2012-08-22, 03:33:04,VALID,1009.19,VALID,0,VALID,104,VALID,0,VALID,22.6225,VALID,54,VALID,0,
2012-08-22, 03:34:04,VALID,1009.16,VALID,0,VALID,104,VALID,0.112112,VALID,22.6013,VALID,54,VALID,0,
2012-08-22, 03:35:04,VALID,1009.16,VALID,0,VALID,104,VALID,0,VALID,22.6225,VALID,54,VALID,0,
2012-08-22, 03:36:04,VALID,1009.18,VALID,0,VALID,104,VALID,0.112112,VALID,22.603,VALID,54,VALID,0,
2012-08-22, 03:37:04,VALID,1009.17,VALID,0,VALID,104,VALID,0.112112,VALID,22.5234,VALID,54,VALID,0,
2012-08-22, 03:38:04,VALID,1009.16,VALID,0,VALID,104,VALID,0.112112,VALID,22.5056,VALID,54,VALID,0,
2012-08-22, 03:39:04,VALID,1009.14,VALID,0,VALID,104,VALID,0,VALID,22.4861,VALID,54,VALID,0,
2012-08-22, 03:40:04,VALID,1009.13,VALID,0,VALID,104,VALID,0,VALID,22.4861,VALID,54,VALID,0,
2012-08-22, 03:41:04,VALID,1009.11,VALID,0,VALID,104,VALID,0,VALID,22.5039,VALID,54,VALID,0,
2012-08-22, 03:42:04,VALID,1009.14,VALID,0,VALID,104,VALID,0.112112,VALID,22.5835,VALID,54,VALID,0,
2012-08-22, 03:43:04,VALID,1009.11,VALID,0,VALID,104,VALID,0,VALID,22.5623,VALID,54,VALID,0,
2012-08-22, 03:44:04,VALID,1009.11,VALID,0,VALID,104,VALID,0,VALID,22.5835,VALID,54,VALID,0,
2012-08-22, 03:45:04,VALID,1009.09,VALID,0,VALID,104,VALID,0,VALID,22.5835,VALID,54,VALID,0,
2012-08-22, 03:46:04,VALID,1009.08,VALID,0,VALID,104,VALID,0,VALID,22.603,VALID,54,VALID,0,
2012-08-22, 03:47:04,VALID,1009.06,VALID,0,VALID,104,VALID,0.112112,VALID,22.6208,VALID,54,VALID,0,
2012-08-22, 03:48:04,VALID,1009.07,VALID,0,VALID,104,VALID,0.112112,VALID,22.6614,VALID,54,VALID,0,
2012-08-22, 03:49:04,VALID,1009.04,VALID,0,VALID,104,VALID,0,VALID,22.6809,VALID,54,VALID,0,
2012-08-22, 03:50:04,VALID,1009.06,VALID,0,VALID,104,VALID,0,VALID,22.7004,VALID,54,VALID,0,
2012-08-22, 03:51:04,VALID,1009.04,VALID,0,VALID,104,VALID,0.112112,VALID,22.7004,VALID,54,VALID,0,
2012-08-22, 03:52:04,VALID,1009.03,VALID,0,VALID,104,VALID,0.112112,VALID,22.6792,VALID,54,VALID,0,
2012-08-22, 03:53:04,VALID,1009.03,VALID,0,VALID,104,VALID,0.112112,VALID,22.6809,VALID,54,VALID,0,
2012-08-22, 03:54:04,VALID,1008.98,VALID,0,VALID,104,VALID,0,VALID,22.6614,VALID,54,VALID,0,
2012-08-22, 03:55:04,VALID,1008.99,VALID,0,VALID,104,VALID,0.112112,VALID,22.6225,VALID,54,VALID,0,
2012-08-22, 03:56:04,VALID,1009.03,VALID,0,VALID,104,VALID,0.112112,VALID,22.6225,VALID,54,VALID,0,
2012-08-22, 03:57:04,VALID,1009.03,VALID,0,VALID,104,VALID,0,VALID,22.5835,VALID,54,VALID,0,
2012-08-22, 03:58:04,VALID,1009.07,VALID,0,VALID,104,VALID,0.112112,VALID,22.5446,VALID,54,VALID,0,
2012-08-22, 03:59:04,VALID,1009.1,VALID,0,VALID,104,VALID,0.112112,VALID,22.5251,VALID,54,VALID,0,
2012-08-22, 04:00:04,VALID,1009.08,VALID,0,VALID,104,VALID,0.112112,VALID,22.5056,VALID,54,VALID,0,
2012-08-22, 04:01:04,VALID,1009.08,VALID,0,VALID,104,VALID,0.112112,VALID,22.465,VALID,54,VALID,0,
2012-08-22, 04:02:04,VALID,1009.1,VALID,0,VALID,104,VALID,0.112112,VALID,22.4861,VALID,54,VALID,0,
2012-08-22, 04:03:04,VALID,1009.11,VALID,0,VALID,104,VALID,0,VALID,22.4861,VALID,54,VALID,0,
2012-08-22, 04:04:04,VALID,1009.1,VALID,0,VALID,104,VALID,0.112112,VALID,22.5251,VALID,54,VALID,0,
2012-08-22, 04:05:04,VALID,1009.1,VALID,0,VALID,104,VALID,0.112112,VALID,22.5039,VALID,54,VALID,0,
2012-08-22, 04:06:04,VALID,1009.1,VALID,0,VALID,104,VALID,0,VALID,22.5039,VALID,54,VALID,0,